Thunderstorms From: 26-05-2018 05:06 Until: 27-05-2018 05:00 warning for: Thunderstorms Level: Yellow info button

Although rather usual in this region, locally or potentially dangerous phenomena are expected. (such as local winds, summer thunderstorms, rising streams or high waves) Be aware and pay attention to the latest weather updates, especially if you carry out activities exposed to weather or close to a stream or shoreline. 


Meteo18 Weather Cam more information Meteo18 Weather Cam


warning for Thunderstorms more information blitzortung!


Rain radar more information rain snow radar


Visit our other weather sites:

Template documentation
and downloads

And another site



Weather Underground History page Text

Daily Summary for February 17, 2017 Units:  English    Metric   Both
« Previous Day
Next Day »
Daily Weekly Monthly Yearly Custom
  High: Low: Average:
Temperature: TemperatureC °F 4.8 °F 6.7 °F
Dew Point: DewpointC °F 3.5 °F 5.7 °F
Humidity: Humidity % 81 % 93 %
Wind Speed: WindSpeedKMH mph 0.0 mph 1.6 mph
Wind Gust: WindSpeedGustKMH mph - -
Wind:- - SSE
Pressure: PressurehPa in 1028.0 in -
Precipitation: 0.5 in    
Historical Graphs
 
 
Tabular Data for February 17, 2017
Time Temperature Dew Point Pressure Wind Wind Speed Wind Gust Humidity Rainfall Rate (Hourly)
TemperatureC °F DewpointC °F PressurehPa in Calm     Humidity % HourlyPrecipMM in
00:02 8.7 °F 8.3 °F 1030.4 in Calm     97 % 0.0 in
00:12 8.6 °F 8.2 °F 1030.4 in Calm     97 % 0.0 in
00:17 8.3 °F 7.7 °F 1030.7 in Calm     96 % 0.0 in
00:22 8.1 °F 7.5 °F 1030.7 in Calm     96 % 0.0 in
00:32 7.7 °F 7.1 °F 1030.7 in Calm     96 % 0.0 in
00:42 7.7 °F 7.3 °F 1030.7 in Calm     97 % 0.0 in
00:52 7.8 °F 7.4 °F 1030.4 in Calm     97 % 0.0 in
00:57 7.9 °F 7.5 °F 1030.4 in Calm     97 % 0.0 in
01:02 7.8 °F 7.4 °F 1030.4 in Calm     97 % 0.0 in
01:12 7.8 °F 7.4 °F 1030.7 in Calm     97 % 0.0 in
01:17 7.8 °F 7.4 °F 1030.4 in Calm     97 % 0.0 in
01:22 7.6 °F 7.2 °F 1030.4 in Calm     97 % 0.0 in
01:27 7.6 °F 7.2 °F 1030.4 in Calm     97 % 0.0 in
01:32 7.6 °F 7.2 °F 1030.4 in Calm     97 % 0.0 in
01:37 7.6 °F 7.2 °F 1030.4 in Calm   1.6 mph 97 % 0.0 in
01:42 7.5 °F 7.1 °F 1030.4 in Calm   1.6 mph 97 % 0.0 in
01:47 7.3 °F 6.9 °F 1030.4 in Calm   1.6 mph 97 % 0.0 in
01:57 6.9 °F 6.3 °F 1030.4 in Calm   3.2 mph 96 % 0.0 in
02:02 6.4 °F 5.8 °F 1030.4 in Calm   3.2 mph 96 % 0.0 in
02:07 6.7 °F 6.3 °F 1030.0 in Calm     97 % 0.0 in
02:17 6.7 °F 6.3 °F 1030.0 in Calm     97 % 0.0 in
02:22 6.7 °F 6.3 °F 1030.4 in Calm     97 % 0.0 in
02:32 6.4 °F 6.0 °F 1030.4 in Calm     97 % 0.3 in
02:42 6.6 °F 6.2 °F 1030.4 in Calm     97 % 0.3 in
02:47 6.6 °F 6.3 °F 1030.0 in Calm     98 % 0.3 in
02:52 6.4 °F 6.0 °F 1030.0 in Calm     97 % 0.3 in
03:02 6.5 °F 6.1 °F 1030.0 in Calm     97 % 0.3 in
03:07 6.8 °F 6.5 °F 1030.0 in Calm     98 % 0.3 in
03:12 6.7 °F 6.4 °F 1030.0 in Calm     98 % 0.3 in
03:17 6.9 °F 6.6 °F 1030.0 in Calm     98 % 0.3 in
03:22 7.0 °F 6.7 °F 1030.0 in Calm     98 % 0.3 in
03:27 6.6 °F 6.2 °F 1030.0 in Calm     97 % 0.0 in
03:32 6.4 °F 6.0 °F 1030.0 in Calm     97 % 0.0 in
03:37 6.5 °F 6.1 °F 1030.0 in Calm     97 % 0.0 in
03:42 6.7 °F 6.3 °F 1030.0 in Calm   1.6 mph 97 % 0.0 in
03:47 6.7 °F 6.3 °F 1030.0 in North 1.6 mph 1.6 mph 97 % 0.0 in
03:52 6.8 °F 6.4 °F 1029.7 in NNE 1.6 mph 1.6 mph 97 % 0.0 in
03:57 6.6 °F 6.2 °F 1029.7 in North 1.6 mph 3.2 mph 97 % 0.0 in
04:02 6.4 °F 6.0 °F 1029.7 in NNW 1.6 mph 3.2 mph 97 % 0.0 in
04:12 6.4 °F 6.0 °F 1029.7 in North 1.6 mph 3.2 mph 97 % 0.0 in
04:17 6.4 °F 6.0 °F 1029.3 in Calm   3.2 mph 97 % 0.0 in
04:22 6.6 °F 6.2 °F 1029.3 in NNW 1.6 mph 3.2 mph 97 % 0.0 in
04:32 6.4 °F 6.0 °F 1029.3 in Calm   4.8 mph 97 % 0.0 in
04:42 6.0 °F 5.6 °F 1029.3 in Calm   3.2 mph 97 % 0.0 in
04:47 5.9 °F 5.5 °F 1029.7 in Calm   3.2 mph 97 % 0.0 in
04:52 5.8 °F 5.4 °F 1029.7 in Calm   3.2 mph 97 % 0.0 in
04:57 5.7 °F 5.3 °F 1029.7 in Calm   3.2 mph 97 % 0.0 in
05:02 5.8 °F 5.4 °F 1029.7 in Calm     97 % 0.0 in
05:07 5.8 °F 5.4 °F 1029.7 in Calm     97 % 0.0 in
05:17 5.7 °F 5.3 °F 1029.7 in Calm   1.6 mph 97 % 0.0 in
05:22 5.7 °F 5.3 °F 1029.7 in Calm   1.6 mph 97 % 0.0 in
05:27 5.8 °F 5.4 °F 1029.7 in Calm   1.6 mph 97 % 0.0 in
05:32 5.9 °F 5.5 °F 1029.7 in Calm   1.6 mph 97 % 0.0 in
05:42 5.7 °F 5.3 °F 1029.7 in Calm   1.6 mph 97 % 0.0 in
05:47 5.8 °F 5.4 °F 1029.3 in Calm     97 % 0.0 in
05:52 5.7 °F 5.3 °F 1029.3 in Calm     97 % 0.0 in
05:57 5.7 °F 5.3 °F 1029.3 in Calm     97 % 0.0 in
06:02 5.6 °F 5.2 °F 1029.7 in Calm     97 % 0.0 in
06:12 5.9 °F 5.6 °F 1029.3 in Calm     98 % 0.0 in
06:17 5.9 °F 5.6 °F 1029.3 in Calm     98 % 0.0 in
06:22 5.8 °F 5.4 °F 1029.3 in Calm     97 % 0.0 in
06:32 5.7 °F 5.3 °F 1029.3 in Calm     97 % 0.0 in
06:42 5.7 °F 5.3 °F 1029.3 in Calm     97 % 0.0 in
06:52 5.8 °F 5.4 °F 1029.3 in Calm     97 % 0.0 in
07:02 5.7 °F 5.3 °F 1029.3 in Calm     97 % 0.0 in
07:12 5.6 °F 5.2 °F 1029.3 in Calm     97 % 0.0 in
07:17 5.6 °F 5.2 °F 1029.3 in Calm     97 % 0.0 in
07:22 5.6 °F 5.2 °F 1029.3 in Calm     97 % 0.0 in
07:32 5.4 °F 5.0 °F 1029.3 in Calm     97 % 0.0 in
07:37 5.4 °F 5.0 °F 1029.3 in Calm     97 % 0.0 in
07:42 5.4 °F 5.0 °F 1029.3 in Calm   1.6 mph 97 % 0.0 in
07:52 5.3 °F 4.9 °F 1029.7 in Calm   3.2 mph 97 % 0.0 in
07:57 5.3 °F 4.9 °F 1029.7 in Calm     97 % 0.0 in
08:02 5.3 °F 4.9 °F 1029.7 in Calm     97 % 0.0 in
08:12 5.3 °F 4.9 °F 1029.7 in Calm     97 % 0.0 in
08:17 5.3 °F 5.0 °F 1029.7 in Calm   1.6 mph 98 % 0.0 in
08:22 5.3 °F 4.9 °F 1029.7 in Calm   1.6 mph 97 % 0.0 in
08:27 5.3 °F 4.9 °F 1029.7 in Calm   1.6 mph 97 % 0.0 in
08:32 5.3 °F 4.9 °F 1029.7 in Calm     97 % 0.0 in
08:37 5.3 °F 4.9 °F 1029.7 in Calm     97 % 0.0 in
08:42 5.2 °F 4.8 °F 1029.7 in Calm     97 % 0.0 in
08:47 5.2 °F 4.8 °F 1030.0 in Calm     97 % 0.0 in
08:52 5.3 °F 4.9 °F 1030.0 in Calm     97 % 0.0 in
08:57 5.3 °F 5.0 °F 1030.0 in NNE 1.6 mph   98 % 0.0 in
09:07 5.3 °F 5.0 °F 1030.0 in NNE 1.6 mph 4.8 mph 98 % 0.0 in
09:12 5.3 °F 5.0 °F 1030.0 in NNE 1.6 mph 4.8 mph 98 % 0.0 in
09:17 5.3 °F 5.0 °F 1030.0 in Calm   3.2 mph 98 % 0.0 in
09:22 5.3 °F 4.9 °F 1030.0 in Calm   3.2 mph 97 % 0.0 in
09:32 5.2 °F 4.8 °F 1030.0 in Calm   3.2 mph 97 % 0.0 in
09:37 5.2 °F 4.8 °F 1030.0 in Calm   3.2 mph 97 % 0.0 in
09:42 5.3 °F 4.9 °F 1030.0 in Calm   3.2 mph 97 % 0.0 in
09:47 5.2 °F 4.8 °F 1030.0 in NNE 3.2 mph   97 % 0.0 in
09:52 5.3 °F 4.9 °F 1030.0 in NNE 3.2 mph 3.2 mph 97 % 0.0 in
09:57 5.3 °F 4.9 °F 1030.0 in NE 3.2 mph 3.2 mph 97 % 0.0 in
10:02 5.3 °F 4.9 °F 1030.4 in NE 6.4 mph 6.4 mph 97 % 0.0 in
10:12 5.4 °F 5.1 °F 1030.4 in NE 6.4 mph 9.7 mph 98 % 0.0 in
10:17 5.5 °F 5.2 °F 1030.4 in NE 3.2 mph 9.7 mph 98 % 0.0 in
10:22 5.5 °F 5.2 °F 1030.4 in ENE 3.2 mph 9.7 mph 98 % 0.0 in
10:32 5.8 °F 5.5 °F 1030.4 in ENE 3.2 mph 8.0 mph 98 % 0.0 in
10:42 5.7 °F 5.4 °F 1030.4 in Calm   6.4 mph 98 % 0.0 in
10:47 5.8 °F 5.5 °F 1030.4 in ENE 3.2 mph 6.4 mph 98 % 0.0 in
10:52 5.8 °F 5.5 °F 1030.4 in NE 4.8 mph 6.4 mph 98 % 0.0 in
11:02 5.8 °F 5.5 °F 1030.4 in NE 1.6 mph 8.0 mph 98 % 0.0 in
11:12 5.7 °F 5.3 °F 1030.4 in ENE 4.8 mph 8.0 mph 97 % 0.0 in
11:17 5.7 °F 5.3 °F 1030.4 in NNE 4.8 mph 9.7 mph 97 % 0.0 in
11:22 5.7 °F 5.3 °F 1030.4 in NE 4.8 mph 9.7 mph 97 % 0.0 in
11:32 5.7 °F 5.4 °F 1030.7 in Calm   8.0 mph 98 % 0.0 in
11:42 5.7 °F 5.4 °F 1030.7 in North 3.2 mph 9.7 mph 98 % 0.0 in
11:47 5.7 °F 5.4 °F 1030.7 in North 4.8 mph 9.7 mph 98 % 0.0 in
11:52 5.8 °F 5.5 °F 1030.7 in North 6.4 mph 8.0 mph 98 % 0.0 in
11:57 5.8 °F 5.5 °F 1030.7 in NNE 4.8 mph 8.0 mph 98 % 0.0 in
12:02 5.9 °F 5.6 °F 1030.4 in NW 1.6 mph 8.0 mph 98 % 0.0 in
12:12 5.9 °F 5.6 °F 1030.4 in NE 1.6 mph 9.7 mph 98 % 0.0 in
12:17 6.1 °F 5.8 °F 1030.4 in Calm   9.7 mph 98 % 0.0 in
12:22 6.1 °F 5.8 °F 1030.4 in North 1.6 mph 9.7 mph 98 % 0.0 in
12:27 6.1 °F 5.8 °F 1030.4 in NE 3.2 mph 9.7 mph 98 % 0.0 in
12:32 6.1 °F 5.8 °F 1030.4 in NNE 6.4 mph 9.7 mph 98 % 0.0 in
12:42 6.2 °F 5.9 °F 1030.4 in NE 3.2 mph 9.7 mph 98 % 0.0 in
12:52 6.2 °F 5.8 °F 1030.4 in NNE 4.8 mph 11.3 mph 97 % 0.3 in
12:57 6.3 °F 6.0 °F 1030.4 in NE 4.8 mph 11.3 mph 98 % 0.3 in
13:02 6.2 °F 5.8 °F 1030.0 in Calm   11.3 mph 97 % 0.3 in
13:12 6.5 °F 6.2 °F 1030.0 in North 4.8 mph 8.0 mph 98 % 0.3 in
13:17 6.4 °F 6.0 °F 1030.0 in Calm   6.4 mph 97 % 0.3 in
13:22 6.6 °F 6.2 °F 1030.0 in Calm   6.4 mph 97 % 0.3 in
13:27 6.7 °F 6.3 °F 1030.0 in Calm   6.4 mph 97 % 0.3 in
13:32 6.8 °F 6.4 °F 1030.0 in NE 6.4 mph 6.4 mph 97 % 0.3 in
13:37 6.7 °F 6.3 °F 1030.0 in East 1.6 mph 6.4 mph 97 % 0.0 in
13:42 6.9 °F 6.5 °F 1029.7 in Calm   6.4 mph 97 % 0.0 in
13:47 6.9 °F 6.5 °F 1029.7 in East 1.6 mph 6.4 mph 97 % 0.0 in
13:52 6.9 °F 6.5 °F 1029.7 in ESE 1.6 mph 3.2 mph 97 % 0.0 in
13:57 7.1 °F 6.7 °F 1029.7 in Calm   3.2 mph 97 % 0.0 in
14:02 7.4 °F 7.0 °F 1029.3 in Calm   3.2 mph 97 % 0.0 in
14:12 7.5 °F 6.9 °F 1029.3 in Calm   3.2 mph 96 % 0.0 in
14:17 7.6 °F 7.0 °F 1029.3 in Calm   3.2 mph 96 % 0.0 in
14:27 8.0 °F 7.4 °F 1029.3 in Calm   3.2 mph 96 % 0.0 in
14:32 8.3 °F 7.7 °F 1029.3 in Calm   3.2 mph 96 % 0.0 in
14:37 8.4 °F 7.6 °F 1029.3 in Calm   1.6 mph 95 % 0.0 in
14:42 8.5 °F 7.6 °F 1029.3 in North 1.6 mph 1.6 mph 94 % 0.0 in
14:47 8.5 °F 7.3 °F 1029.3 in NNW 1.6 mph 4.8 mph 92 % 0.0 in
14:52 8.6 °F 7.2 °F 1029.0 in Calm   4.8 mph 91 % 0.0 in
14:57 8.6 °F 7.2 °F 1029.0 in North 1.6 mph 4.8 mph 91 % 0.0 in
15:02 8.8 °F 7.2 °F 1029.0 in Calm   3.2 mph 90 % 0.0 in
15:07 9.1 °F 7.4 °F 1029.0 in Calm   3.2 mph 89 % 0.0 in
15:12 9.2 °F 7.1 °F 1029.0 in NNE 1.6 mph 4.8 mph 87 % 0.0 in
15:17 9.1 °F 7.1 °F 1029.0 in NNE 1.6 mph 4.8 mph 87 % 0.0 in
15:22 9.1 °F 7.1 °F 1029.0 in Calm   6.4 mph 87 % 0.0 in
15:27 9.1 °F 7.1 °F 1029.0 in NW 1.6 mph 6.4 mph 87 % 0.0 in
15:32 9.2 °F 7.0 °F 1029.0 in NNE 1.6 mph 6.4 mph 86 % 0.0 in
15:37 9.2 °F 7.0 °F 1029.0 in NE 1.6 mph 4.8 mph 86 % 0.0 in
15:42 9.3 °F 7.1 °F 1028.7 in Calm   4.8 mph 86 % 0.0 in
15:52 9.3 °F 6.9 °F 1028.7 in NNW 1.6 mph 4.8 mph 85 % 0.0 in
15:57 9.3 °F 6.7 °F 1028.7 in Calm   4.8 mph 84 % 0.0 in
16:02 9.4 °F 6.8 °F 1028.7 in NNW 1.6 mph 6.4 mph 84 % 0.0 in
16:12 9.4 °F 6.7 °F 1028.7 in Calm   6.4 mph 83 % 0.0 in
16:17 9.5 °F 6.8 °F 1028.7 in NNE 1.6 mph 4.8 mph 83 % 0.0 in
16:22 9.6 °F 6.9 °F 1028.7 in NE 3.2 mph 4.8 mph 83 % 0.0 in
16:32 9.5 °F 6.4 °F 1028.7 in North 3.2 mph 6.4 mph 81 % 0.0 in
16:37 9.5 °F 6.8 °F 1028.7 in North 1.6 mph 6.4 mph 83 % 0.0 in
16:42 9.5 °F 6.8 °F 1028.7 in North 4.8 mph 6.4 mph 83 % 0.0 in
16:47 9.5 °F 6.8 °F 1028.7 in NNW 3.2 mph 4.8 mph 83 % 0.0 in
16:52 9.6 °F 6.9 °F 1028.3 in NNW 4.8 mph 4.8 mph 83 % 0.0 in
16:57 9.7 °F 7.0 °F 1028.3 in NW 3.2 mph 4.8 mph 83 % 0.0 in
17:02 9.7 °F 6.8 °F 1028.3 in NNW 3.2 mph 6.4 mph 82 % 0.0 in
17:07 9.6 °F 6.7 °F 1028.3 in NNW 4.8 mph 8.0 mph 82 % 0.0 in
17:12 9.6 °F 6.7 °F 1028.3 in North 3.2 mph 8.0 mph 82 % 0.0 in
17:17 9.6 °F 6.7 °F 1028.3 in NNW 3.2 mph 8.0 mph 82 % 0.0 in
17:22 9.6 °F 6.9 °F 1028.3 in NNW 1.6 mph 6.4 mph 83 % 0.0 in
17:32 9.4 °F 6.7 °F 1028.3 in NNE 3.2 mph 6.4 mph 83 % 0.0 in
17:37 9.3 °F 6.6 °F 1028.3 in North 1.6 mph 6.4 mph 83 % 0.0 in
17:42 9.2 °F 6.5 °F 1028.3 in NNW 4.8 mph 8.0 mph 83 % 0.0 in
17:47 9.2 °F 6.5 °F 1028.3 in NNW 3.2 mph 8.0 mph 83 % 0.0 in
17:52 9.1 °F 6.4 °F 1028.3 in North 3.2 mph 8.0 mph 83 % 0.0 in
17:57 8.9 °F 6.2 °F 1028.3 in North 3.2 mph 8.0 mph 83 % 0.0 in
18:02 8.8 °F 6.2 °F 1028.3 in NNW 3.2 mph 6.4 mph 84 % 0.0 in
18:12 8.5 °F 6.1 °F 1028.3 in Calm   6.4 mph 85 % 0.0 in
18:17 8.3 °F 6.1 °F 1028.3 in NNW 4.8 mph 6.4 mph 86 % 0.0 in
18:27 8.1 °F 6.1 °F 1028.3 in NNW 3.2 mph 4.8 mph 87 % 0.0 in
18:32 8.0 °F 6.0 °F 1028.3 in NNW 3.2 mph 4.8 mph 87 % 0.0 in
18:42 7.8 °F 5.9 °F 1028.3 in NNW 1.6 mph 4.8 mph 88 % 0.0 in
18:52 7.6 °F 5.9 °F 1028.3 in NNW 3.2 mph 6.4 mph 89 % 0.0 in
18:57 7.5 °F 5.8 °F 1028.7 in NNW 4.8 mph 6.4 mph 89 % 0.0 in
19:02 7.4 °F 5.9 °F 1028.7 in NW 4.8 mph 6.4 mph 90 % 0.0 in
19:12 7.2 °F 5.7 °F 1028.7 in NNW 4.8 mph 8.0 mph 90 % 0.0 in
19:17 7.1 °F 5.6 °F 1028.7 in NW 1.6 mph 8.0 mph 90 % 0.0 in
19:22 7.1 °F 5.6 °F 1028.7 in NNW 4.8 mph 8.0 mph 90 % 0.0 in
19:27 7.0 °F 5.5 °F 1028.7 in NNW 4.8 mph 6.4 mph 90 % 0.0 in
19:32 6.9 °F 5.4 °F 1028.7 in NNW 1.6 mph 6.4 mph 90 % 0.0 in
19:37 6.9 °F 5.5 °F 1028.7 in NNW 3.2 mph 6.4 mph 91 % 0.0 in
19:47 6.6 °F 5.2 °F 1028.7 in North 1.6 mph 4.8 mph 91 % 0.0 in
19:52 6.5 °F 5.1 °F 1028.7 in North 1.6 mph 4.8 mph 91 % 0.0 in
19:57 6.5 °F 5.3 °F 1028.7 in NNW 3.2 mph 3.2 mph 92 % 0.0 in
20:02 6.6 °F 5.4 °F 1028.7 in North 1.6 mph 4.8 mph 92 % 0.0 in
20:12 6.4 °F 5.0 °F 1028.7 in NNW 1.6 mph 4.8 mph 91 % 0.0 in
20:17 6.4 °F 5.0 °F 1028.7 in NNW 1.6 mph 4.8 mph 91 % 0.0 in
20:22 6.3 °F 4.9 °F 1028.7 in North 1.6 mph 4.8 mph 91 % 0.0 in
20:27 6.1 °F 4.9 °F 1028.3 in North 1.6 mph 4.8 mph 92 % 0.0 in
20:32 6.1 °F 4.9 °F 1028.7 in NNE 1.6 mph 4.8 mph 92 % 0.0 in
20:37 6.1 °F 4.9 °F 1028.3 in North 1.6 mph 4.8 mph 92 % 0.0 in
20:42 6.1 °F 4.9 °F 1028.3 in NNE 3.2 mph 4.8 mph 92 % 0.0 in
20:47 6.1 °F 4.7 °F 1028.3 in NNE 1.6 mph 4.8 mph 91 % 0.0 in
20:52 5.9 °F 4.5 °F 1028.7 in NNE 4.8 mph 4.8 mph 91 % 0.0 in
20:57 5.8 °F 4.6 °F 1028.7 in Calm   8.0 mph 92 % 0.0 in
21:02 5.8 °F 4.6 °F 1028.7 in North 4.8 mph 8.0 mph 92 % 0.0 in
21:07 5.9 °F 4.7 °F 1028.7 in NNW 3.2 mph 8.0 mph 92 % 0.0 in
21:12 5.9 °F 4.7 °F 1028.7 in North 3.2 mph 6.4 mph 92 % 0.0 in
21:22 5.8 °F 4.4 °F 1028.7 in North 3.2 mph 6.4 mph 91 % 0.0 in
21:27 5.7 °F 4.3 °F 1028.7 in North 6.4 mph 6.4 mph 91 % 0.0 in
21:32 5.6 °F 4.4 °F 1028.7 in NNW 3.2 mph 6.4 mph 92 % 0.0 in
21:37 5.7 °F 4.7 °F 1028.7 in North 6.4 mph 9.7 mph 93 % 0.0 in
21:42 5.7 °F 4.7 °F 1028.7 in NE 3.2 mph 9.7 mph 93 % 0.0 in
21:47 5.7 °F 4.7 °F 1028.7 in North 6.4 mph 9.7 mph 93 % 0.0 in
21:52 5.7 °F 4.5 °F 1028.7 in NNE 3.2 mph 8.0 mph 92 % 0.0 in
21:57 5.7 °F 4.5 °F 1028.7 in NE 3.2 mph 8.0 mph 92 % 0.0 in
22:02 5.6 °F 4.4 °F 1028.7 in North 4.8 mph 9.7 mph 92 % 0.0 in
22:07 5.4 °F 4.2 °F 1028.7 in North 1.6 mph 9.7 mph 92 % 0.0 in
22:17 5.3 °F 4.3 °F 1028.3 in North 6.4 mph 9.7 mph 93 % 0.0 in
22:22 5.4 °F 4.2 °F 1028.3 in NE 4.8 mph 9.7 mph 92 % 0.0 in
22:27 5.4 °F 4.2 °F 1028.3 in North 1.6 mph 9.7 mph 92 % 0.0 in
22:32 5.4 °F 4.2 °F 1028.3 in ENE 6.4 mph 9.7 mph 92 % 0.0 in
22:37 5.4 °F 4.2 °F 1028.3 in Calm   8.0 mph 92 % 0.0 in
22:42 5.3 °F 4.0 °F 1028.3 in Calm   8.0 mph 91 % 0.0 in
22:47 5.2 °F 4.0 °F 1028.3 in Calm   6.4 mph 92 % 0.0 in
22:57 5.3 °F 4.1 °F 1028.3 in NE 1.6 mph 4.8 mph 92 % 0.0 in
23:02 5.4 °F 4.2 °F 1028.3 in NNE 4.8 mph 4.8 mph 92 % 0.0 in
23:07 5.4 °F 4.0 °F 1028.3 in North 4.8 mph 11.3 mph 91 % 0.0 in
23:12 5.4 °F 4.0 °F 1028.3 in NNE 4.8 mph 11.3 mph 91 % 0.0 in
23:17 5.4 °F 3.9 °F 1028.3 in Calm   11.3 mph 90 % 0.0 in
23:22 5.2 °F 3.9 °F 1028.3 in NNE 1.6 mph 11.3 mph 91 % 0.0 in
23:32 5.1 °F 3.8 °F 1028.3 in North 1.6 mph 6.4 mph 91 % 0.0 in
23:37 5.1 °F 3.8 °F 1028.0 in Calm   3.2 mph 91 % 0.0 in
23:42 5.1 °F 3.8 °F 1028.0 in Calm   3.2 mph 91 % 0.0 in
23:52 4.9 °F 3.6 °F 1028.0 in Calm   3.2 mph 91 % 0.0 in
23:57 4.8 °F 3.5 °F 1028.0 in Calm   3.2 mph 91 % 0.0 in
Meteo18
Compliments of Weather Underground - 4 mb

Script developed by  Jim McMurry - jmcmurry@mwt.net Adapted for the template by  Wim van der Kuil - Leuven-Template.eu

You find our weather info also at:

European Weather Network

Weather Underground

Equipment we use:

Weather-station
Davis Vue

Weather-program
Meteobridge

Weather-server
Raspberry PI 2 B+

Provider
1 and 1

Davis Vue

Meteobridge

Raspberry PI 2 B+

1 and 1